Погода в Чемерна

Россия / Брянская область     52°47′48″N   32°12′34″E
темп.,
°C
ветер,
м/с
пор.,
м/с
влажн.,
%
обл.,
%
осадки,
мм/ч
давл.,
гПа
погр.,
м
23 апреля, пт
пт2300:00+9ю5118693 0.3 1013330
03:00+8ююз489354 0.4 1013304
06:00+7з4794100 0.4 1014521
09:00+5зсз3692100 1.9 1015593
12:00+9з5660100 0.1 10151507
15:00+9з6749100 0.1 10151805
18:00+9з5657100 0.1 10141416
21:00+5зсз3573100 0.2 1014117
24 апреля, сб
сб2400:00+3з368087 0.0 1014129
03:00+2зюз38885 0.0 1013182
06:00+1з5109062 0.0 1013544
09:00+2з71080100 0.1 1012940
12:00+2сз8128598 1.8 1013869
15:00+5зсз91162100 2.3 10151778
18:00+5зсз7106454 0.3 10151555
21:00+2зюз512757 0.4 1016331
25 апреля, вс
вс2500:00+1зюз613795 0.0 1016351
03:000зюз5128445 0.0 1016335
06:00−1зюз5128899 0.0 1016338
09:00+3юз4673100 0.0 1014816
12:00+2зсз468969 1.8 1015574
15:00+6з7949100 2.2 10142152
18:00+5з6864100 0.3 10151221
21:00+1зюз48835 0.4 1016156
26 апреля, пн
пн2600:000юз411865 0.0 1016239
03:00−1зюз4890100 0.0 1015169
06:00−1зюз359066 0.0 1015119
09:00+4зюз346971 0.0 1015612
12:00+7з4555100 1.1 10131357
15:00+7з5556100 2.5 10131426
18:00+5з4563100 0.9 10121098
21:00+2зюз4876100 0.9 1012143
27 апреля, вт
вт2700:000зюз398798 0.0 1012206
03:000зюз499043 0.0 1012229
06:00−1зюз499457 0.0 1012254
09:00+4зюз567335 0.0 1011870
12:00+5зюз566097 0.6 10111529
15:00+7з775895 1.3 10111607
18:00+5з686990 0.1 10121245
21:00+3зюз5108097 0.1 1013478